Time,TemperatureF,DewpointF,PressureIn,WindDirection,WindDirectionDegrees,WindSpeedMPH,WindSpeedGustMPH,Humidity,HourlyPrecipIn,Conditions,Clouds,dailyrainin,SoftwareType,DateUTC
2013-01-28 00:13:00,58.5,-41.8,29.94,East,90,4.7,-999.0,1,-99.99,,,0.00,Acu-Link.com,2013-01-28 06:13:00,
2013-01-28 00:29:00,58.8,-41.6,29.94,SSE,157,2.7,-999.0,1,-99.99,,,0.00,Acu-Link.com,2013-01-28 06:29:00,
2013-01-28 00:44:00,58.6,-41.7,29.94,ESE,112,2.2,-999.0,1,-99.99,,,0.00,Acu-Link.com,2013-01-28 06:44:00,
2013-01-28 00:59:00,58.5,-41.8,29.94,South,180,3.7,-999.0,1,-99.99,,,0.00,Acu-Link.com,2013-01-28 06:59:00,
2013-01-28 01:14:00,58.1,-42.0,29.94,SSE,157,3.7,-999.0,1,-99.99,,,0.00,Acu-Link.com,2013-01-28 07:14:00,
2013-01-28 01:30:00,57.7,-42.3,29.95,SSE,157,1.7,-999.0,1,-99.99,,,0.00,Acu-Link.com,2013-01-28 07:30:00,
2013-01-28 01:45:00,57.6,-42.3,29.95,SSE,157,2.2,-999.0,1,-99.99,,,0.00,Acu-Link.com,2013-01-28 07:45:00,
2013-01-28 02:00:00,58.5,-41.8,29.96,SE,135,4.2,-999.0,1,-99.99,,,0.00,Acu-Link.com,2013-01-28 08:00:00,
2013-01-28 02:15:00,58.6,-41.7,29.96,South,180,4.7,-999.0,1,-99.99,,,0.00,Acu-Link.com,2013-01-28 08:15:00,
2013-01-28 02:30:00,58.8,-41.6,29.96,SSE,157,2.7,-999.0,1,-99.99,,,0.00,Acu-Link.com,2013-01-28 08:30:00,
2013-01-28 02:45:00,58.8,-41.6,29.97,South,180,3.7,-999.0,1,-99.99,,,0.00,Acu-Link.com,2013-01-28 08:45:00,
2013-01-28 03:00:00,58.8,-41.6,29.97,South,180,1.7,-999.0,1,-99.99,,,0.00,Acu-Link.com,2013-01-28 09:00:00,
2013-01-28 03:15:00,58.8,-41.6,29.96,ESE,112,1.7,-999.0,1,-99.99,,,0.00,Acu-Link.com,2013-01-28 09:15:00,
2013-01-28 03:31:00,58.6,-41.7,29.96,South,180,2.2,-999.0,1,-99.99,,,0.00,Acu-Link.com,2013-01-28 09:31:00,
2013-01-28 03:46:00,58.3,-41.9,29.97,ESE,112,0.0,-999.0,1,-99.99,,,0.00,Acu-Link.com,2013-01-28 09:46:00,
2013-01-28 04:01:00,57.7,-42.3,29.97,SW,225,0.0,-999.0,1,-99.99,,,0.00,Acu-Link.com,2013-01-28 10:01:00,
2013-01-28 04:16:00,57.2,-42.6,29.97,SE,135,0.0,-999.0,1,-99.99,,,0.00,Acu-Link.com,2013-01-28 10:16:00,
2013-01-28 04:31:00,57.2,-42.6,29.96,SE,135,0.0,-999.0,1,-99.99,,,0.00,Acu-Link.com,2013-01-28 10:31:00,
2013-01-28 04:46:00,57.4,-42.4,29.95,SSE,157,3.2,-999.0,1,-99.99,,,0.00,Acu-Link.com,2013-01-28 10:46:00,
2013-01-28 05:01:00,57.7,-42.3,29.95,SE,135,1.7,-999.0,1,-99.99,,,0.00,Acu-Link.com,2013-01-28 11:01:00,
2013-01-28 05:16:00,57.9,-42.1,29.94,SE,135,3.7,-999.0,1,-99.99,,,0.00,Acu-Link.com,2013-01-28 11:16:00,
2013-01-28 05:32:00,58.3,-41.9,29.95,South,180,3.2,-999.0,1,-99.99,,,0.00,Acu-Link.com,2013-01-28 11:32:00,
2013-01-28 05:47:00,58.5,-41.8,29.96,SSE,157,0.0,-999.0,1,-99.99,,,0.00,Acu-Link.com,2013-01-28 11:47:00,
2013-01-28 06:02:00,58.5,-41.8,29.96,SSE,157,0.0,-999.0,1,-99.99,,,0.00,Acu-Link.com,2013-01-28 12:02:00,
2013-01-28 06:17:00,58.3,-41.9,29.97,ESE,112,1.1,-999.0,1,-99.99,,,0.00,Acu-Link.com,2013-01-28 12:17:00,
2013-01-28 06:32:00,58.3,-41.9,29.97,ESE,112,0.0,-999.0,1,-99.99,,,0.00,Acu-Link.com,2013-01-28 12:32:00,
2013-01-28 06:47:00,58.3,-41.9,29.97,ESE,112,1.7,-999.0,1,-99.99,,,0.00,Acu-Link.com,2013-01-28 12:47:00,
2013-01-28 07:02:00,58.1,-42.0,29.97,ESE,112,0.0,-999.0,1,-99.99,,,0.00,Acu-Link.com,2013-01-28 13:02:00,
2013-01-28 07:17:00,57.7,-42.3,29.97,NE,45,0.0,-999.0,1,-99.99,,,0.00,Acu-Link.com,2013-01-28 13:17:00,
2013-01-28 07:32:00,58.1,-42.0,29.97,SE,135,0.0,-999.0,1,-99.99,,,0.00,Acu-Link.com,2013-01-28 13:32:00,
2013-01-28 07:48:00,58.6,-41.7,29.98,SE,135,2.2,-999.0,1,-99.99,,,0.00,Acu-Link.com,2013-01-28 13:48:00,
2013-01-28 08:03:00,59.2,-41.3,29.98,ESE,112,1.7,-999.0,1,-99.99,,,0.00,Acu-Link.com,2013-01-28 14:03:00,
2013-01-28 08:18:00,59.7,-41.0,29.98,ESE,112,2.7,-999.0,1,-99.99,,,0.00,Acu-Link.com,2013-01-28 14:18:00,
2013-01-28 08:33:00,60.3,-40.7,29.99,SSE,157,2.7,-999.0,1,-99.99,,,0.00,Acu-Link.com,2013-01-28 14:33:00,
2013-01-28 08:48:00,60.8,-40.4,29.99,South,180,2.2,-999.0,1,-99.99,,,0.00,Acu-Link.com,2013-01-28 14:48:00,
2013-01-28 09:03:00,61.3,-40.1,29.99,SE,135,3.2,-999.0,1,-99.99,,,0.00,Acu-Link.com,2013-01-28 15:03:00,
2013-01-28 09:18:00,61.9,-39.7,29.99,ESE,112,2.7,-999.0,1,-99.99,,,0.00,Acu-Link.com,2013-01-28 15:18:00,
2013-01-28 09:33:00,62.6,-39.3,29.99,SSE,157,2.7,-999.0,1,-99.99,,,0.00,Acu-Link.com,2013-01-28 15:33:00,
2013-01-28 09:48:00,63.3,-38.9,30.00,SSE,157,2.2,-999.0,1,-99.99,,,0.00,Acu-Link.com,2013-01-28 15:48:00,
2013-01-28 10:04:00,64.2,-38.3,30.00,ESE,112,2.2,-999.0,1,-99.99,,,0.00,Acu-Link.com,2013-01-28 16:04:00,
2013-01-28 10:19:00,64.4,-38.2,29.99,SSE,157,5.8,-999.0,1,-99.99,,,0.00,Acu-Link.com,2013-01-28 16:19:00,
2013-01-28 10:34:00,64.6,-38.1,30.00,SSE,157,4.7,-999.0,1,-99.99,,,0.00,Acu-Link.com,2013-01-28 16:34:00,
2013-01-28 10:49:00,64.9,-37.9,30.00,ESE,112,4.2,-999.0,1,-99.99,,,0.00,Acu-Link.com,2013-01-28 16:49:00,
2013-01-28 11:04:00,65.7,-37.4,29.99,ESE,112,4.7,-999.0,1,-99.99,,,0.00,Acu-Link.com,2013-01-28 17:04:00,
2013-01-28 11:19:00,66.2,-37.1,29.99,SE,135,2.2,-999.0,1,-99.99,,,0.00,Acu-Link.com,2013-01-28 17:19:00,
2013-01-28 11:34:00,66.7,3.6,29.98,South,180,3.2,-999.0,8,-99.99,,,0.00,Acu-Link.com,2013-01-28 17:34:00,
2013-01-28 11:49:00,68.2,-9.8,29.97,SE,135,2.7,-999.0,4,-99.99,,,0.00,Acu-Link.com,2013-01-28 17:49:00,
2013-01-28 12:04:00,68.5,19.0,29.96,ESE,112,2.7,-999.0,15,-99.99,,,0.00,Acu-Link.com,2013-01-28 18:04:00,
2013-01-28 12:20:00,69.3,-35.2,29.95,SSE,157,4.7,-999.0,1,-99.99,,,0.00,Acu-Link.com,2013-01-28 18:20:00,
2013-01-28 12:35:00,68.7,-35.6,29.95,SW,225,4.7,-999.0,1,-99.99,,,0.00,Acu-Link.com,2013-01-28 18:35:00,
2013-01-28 12:50:00,68.7,-35.6,29.93,SSW,202,3.7,-999.0,1,-99.99,,,0.00,Acu-Link.com,2013-01-28 18:50:00,
2013-01-28 13:05:00,69.8,-34.9,29.93,South,180,5.8,-999.0,1,-99.99,,,0.00,Acu-Link.com,2013-01-28 19:05:00,
2013-01-28 13:20:00,70.3,-34.6,29.91,South,180,6.3,-999.0,1,-99.99,,,0.00,Acu-Link.com,2013-01-28 19:20:00,
2013-01-28 13:35:00,71.2,-34.1,29.91,ESE,112,9.4,-999.0,1,-99.99,,,0.00,Acu-Link.com,2013-01-28 19:35:00,
2013-01-28 13:50:00,71.4,-34.0,29.90,SSE,157,5.3,-999.0,1,-99.99,,,0.00,Acu-Link.com,2013-01-28 19:50:00,
2013-01-28 14:05:00,72.1,-33.6,29.90,SE,135,3.7,-999.0,1,-99.99,,,0.00,Acu-Link.com,2013-01-28 20:05:00,
2013-01-28 14:20:00,72.0,-33.6,29.89,SSE,157,5.8,-999.0,1,-99.99,,,0.00,Acu-Link.com,2013-01-28 20:20:00,
2013-01-28 14:36:00,72.3,-33.4,29.89,South,180,6.3,-999.0,1,-99.99,,,0.00,Acu-Link.com,2013-01-28 20:36:00,
2013-01-28 14:51:00,72.3,-33.4,29.89,SSE,157,8.3,-999.0,1,-99.99,,,0.00,Acu-Link.com,2013-01-28 20:51:00,
2013-01-28 15:06:00,72.1,-33.6,29.88,ESE,112,4.2,-999.0,1,-99.99,,,0.00,Acu-Link.com,2013-01-28 21:06:00,
2013-01-28 15:21:00,72.3,-33.4,29.88,SSE,157,6.8,-999.0,1,-99.99,,,0.00,Acu-Link.com,2013-01-28 21:21:00,
2013-01-28 15:36:00,72.0,-33.6,29.88,SSE,157,5.3,-999.0,1,-99.99,,,0.00,Acu-Link.com,2013-01-28 21:36:00,
2013-01-28 15:51:00,71.8,-33.7,29.88,ESE,112,2.7,-999.0,1,-99.99,,,0.00,Acu-Link.com,2013-01-28 21:51:00,
2013-01-28 16:06:00,71.8,-33.7,29.88,South,180,5.3,-999.0,1,-99.99,,,0.00,Acu-Link.com,2013-01-28 22:06:00,
2013-01-28 16:21:00,71.4,-34.0,29.87,SE,135,3.7,-999.0,1,-99.99,,,0.00,Acu-Link.com,2013-01-28 22:21:00,
2013-01-28 16:36:00,70.9,-34.3,29.87,South,180,4.7,-999.0,1,-99.99,,,0.00,Acu-Link.com,2013-01-28 22:36:00,
2013-01-28 16:52:00,70.7,-34.4,29.87,SE,135,2.2,-999.0,1,-99.99,,,0.00,Acu-Link.com,2013-01-28 22:52:00,
2013-01-28 17:07:00,69.3,-35.2,29.87,SSE,157,1.7,-999.0,1,-99.99,,,0.00,Acu-Link.com,2013-01-28 23:07:00,
2013-01-28 17:22:00,68.0,-36.0,29.86,SE,135,1.7,-999.0,1,-99.99,,,0.00,Acu-Link.com,2013-01-28 23:22:00,
2013-01-28 17:37:00,66.7,-36.8,29.86,SSE,157,0.0,-999.0,1,-99.99,,,0.00,Acu-Link.com,2013-01-28 23:37:00,
2013-01-28 17:52:00,65.3,-37.6,29.86,SE,135,0.0,-999.0,1,-99.99,,,0.00,Acu-Link.com,2013-01-28 23:52:00,
2013-01-28 18:07:00,63.5,-38.7,29.86,ESE,112,0.0,-999.0,1,-99.99,,,0.00,Acu-Link.com,2013-01-29 00:07:00,
2013-01-28 18:23:00,61.9,-39.7,29.86,NE,45,0.0,-999.0,1,-99.99,,,0.00,Acu-Link.com,2013-01-29 00:23:00,
2013-01-28 18:38:00,60.6,-40.5,29.86,NE,45,0.0,-999.0,1,-99.99,,,0.00,Acu-Link.com,2013-01-29 00:38:00,
2013-01-28 18:53:00,59.5,-41.2,29.86,NE,45,0.0,-999.0,1,-99.99,,,0.00,Acu-Link.com,2013-01-29 00:53:00,
2013-01-28 19:08:00,59.0,-41.5,29.86,ESE,112,0.0,-999.0,1,-99.99,,,0.00,Acu-Link.com,2013-01-29 01:08:00,
2013-01-28 19:23:00,59.5,-41.2,29.86,ESE,112,0.0,-999.0,1,-99.99,,,0.00,Acu-Link.com,2013-01-29 01:23:00,
2013-01-28 19:38:00,60.8,-40.4,29.86,ESE,112,1.7,-999.0,1,-99.99,,,0.00,Acu-Link.com,2013-01-29 01:38:00,
2013-01-28 19:53:00,61.9,-39.7,29.86,SE,135,3.2,-999.0,1,-99.99,,,0.00,Acu-Link.com,2013-01-29 01:53:00,
2013-01-28 20:08:00,62.4,-39.4,29.86,ESE,112,3.7,-999.0,1,-99.99,,,0.00,Acu-Link.com,2013-01-29 02:08:00,
2013-01-28 20:23:00,63.0,-39.0,29.86,SE,135,1.7,-999.0,1,-99.99,,,0.00,Acu-Link.com,2013-01-29 02:23:00,
2013-01-28 20:38:00,63.3,-38.9,29.86,South,180,2.7,-999.0,1,-99.99,,,0.00,Acu-Link.com,2013-01-29 02:38:00,
2013-01-28 20:54:00,62.8,-39.2,29.86,ESE,112,2.7,-999.0,1,-99.99,,,0.00,Acu-Link.com,2013-01-29 02:54:00,
2013-01-28 21:09:00,62.6,-39.3,29.86,South,180,2.2,-999.0,1,-99.99,,,0.00,Acu-Link.com,2013-01-29 03:09:00,
2013-01-28 21:24:00,62.2,-39.5,29.86,SE,135,1.7,-999.0,1,-99.99,,,0.00,Acu-Link.com,2013-01-29 03:24:00,
2013-01-28 21:39:00,61.7,-39.8,29.86,ESE,112,1.7,-999.0,1,-99.99,,,0.00,Acu-Link.com,2013-01-29 03:39:00,
2013-01-28 21:54:00,61.3,-40.1,29.86,SSE,157,1.1,-999.0,1,-99.99,,,0.00,Acu-Link.com,2013-01-29 03:54:00,
2013-01-28 22:09:00,61.3,-40.1,29.86,SSE,157,2.7,-999.0,1,-99.99,,,0.00,Acu-Link.com,2013-01-29 04:09:00,
2013-01-28 22:24:00,61.3,-40.1,29.86,South,180,3.7,-999.0,1,-99.99,,,0.00,Acu-Link.com,2013-01-29 04:24:00,
2013-01-28 22:39:00,61.5,-39.9,29.86,SSE,157,1.7,-999.0,1,-99.99,,,0.00,Acu-Link.com,2013-01-29 04:39:00,
2013-01-28 22:54:00,61.2,-6.5,29.86,SE,135,1.7,-999.0,6,-99.99,,,0.00,Acu-Link.com,2013-01-29 04:54:00,
2013-01-28 23:10:00,61.2,-40.1,29.85,ESE,112,1.7,-999.0,1,-99.99,,,0.00,Acu-Link.com,2013-01-29 05:10:00,
2013-01-28 23:25:00,61.3,-40.1,29.85,SSE,157,1.7,-999.0,1,-99.99,,,0.00,Acu-Link.com,2013-01-29 05:25:00,
2013-01-28 23:40:00,62.2,-39.5,29.86,WSW,247,4.2,-999.0,1,-99.99,,,0.00,Acu-Link.com,2013-01-29 05:40:00,
2013-01-28 23:55:00,62.4,-39.4,29.85,SE,135,1.7,-999.0,1,-99.99,,,0.00,Acu-Link.com,2013-01-29 05:55:00,